Vertical_Velocity
-2 -1 0 -1 -1 -3 -7 -5 -2 -1 -3 -1 1 2 3 2 0 -1 1 1 -0 -1 -1 -2 -2 -1 -1 -1 -1 -0 -1 -1 -2 -2 -2 -1 -1 -1 -2 -2 -2 -1 -1 -2 -2 -2 -2 -2 -2 -2 -1 -0 -1 -2 -4 -5 -5 -4 -4 -3 -3 -3 -3 -3 -3 -3 -4 -3 -3 -4 -4 -3 -3 -2 -1 2 5 6 7 5 4 5 7 6 4 2
-2 -1 -1 -2 -2 -3 -8 -5 -2 1 -2 -1 1 3 4 3 1 0 1 0 -0 -1 -1 -1 -1 -2 -2 -2 -1 -0 -0 -1 -1 -2 -2 -1 -2 -2 -2 -2 -2 -2 -2 -2 -2 -2 -1 -0 0 1 0 -1 -3 -5 -5 -5 -4 -3 -2 -2 -3 -3 -2 -3 -2 -2 -2 -2 -2 -2 -3 -2 -2 -2 -2 -2 -2 -2 -3 -4 -5 -5 -5 -6 -8 -9
-2 -2 -4 -3 -2 -4 -7 -5 -1 1 2 1 1 3 4 2 0 -1 -0 0 0 0 -0 -1 -1 -2 -3 -2 -1 -1 -0 -1 -1 -1 -2 -2 -2 -2 -2 -2 -2 -2 -2 -2 -1 -0 1 1 1 -1 -3 -4 -5 -5 -3 -2 -2 -2 -2 -2 -2 -3 -3 -3 -3 -3 -3 -2 -1 -1 -1 -1 -1 -1 -1 -2 -3 -5 -6 -8 -8 -9 -9 -9 -9 -9
-1 -3 -6 -3 -3 -4 -7 -3 -0 1 2 2 2 2 3 1 -1 -2 -1 0 0 -0 -1 -0 -1 -2 -3 -3 -2 -1 0 -0 -1 -1 -2 -2 -2 -2 -2 -2 -2 -2 -2 -1 0 1 1 -1 -3 -4 -4 -4 -3 -2 -2 -1 -1 -1 -1 -2 -1 -2 -2 -3 -3 -3 -3 -3 -2 -2 -2 -2 -3 -4 -3 -3 -4 -5 -6 -6 -6 -6 -7 -6 -6 -5
-2 -4 -5 -1 -2 -5 -7 -1 1 1 1 1 1 1 1 -0 -1 -2 -1 -0 -0 -1 -1 -0 -0 -1 -3 -3 -2 -1 1 0 -1 -2 -2 -2 -2 -2 -2 -2 -1 -1 -0 -0 -0 -0 -1 -2 -2 -2 -2 -3 -2 -2 -1 -1 -1 -1 -1 -1 -2 -2 -2 -3 -3 -3 -3 -3 -3 -2 -3 -3 -4 -4 -4 -4 -5 -5 -5 -5 -5 -5 -5 -5 -4 -3
-4 -4 -3 -1 -2 -5 -4 -1 -0 1 1 -0 -0 0 0 -1 -1 -1 -1 -1 -1 -1 -1 -0 -0 -1 -2 -3 -2 -1 0 -0 -1 -2 -3 -3 -2 -2 -1 -1 -0 0 -0 -0 -1 -1 -2 -2 -1 -1 -2 -2 -2 -2 -2 -2 -2 -2 -3 -3 -3 -3 -3 -3 -3 -3 -2 -2 -2 -2 -2 -2 -2 -2 -3 -3 -3 -4 -4 -4 -5 -5 -5 -5 -5 -5
-4 -4 -1 -1 -3 -3 -1 -2 -2 -1 1 -1 -1 -1 -1 -1 -1 -1 -2 -1 -0 -0 -1 -1 -1 -1 -2 -2 -1 -0 0 -1 -2 -2 -2 -2 -1 -1 -1 -0 -0 -0 -1 -1 -1 -1 -1 -1 -1 -1 -1 -2 -2 -2 -2 -2 -2 -3 -3 -3 -3 -3 -3 -3 -2 -2 -1 -1 -2 -3 -3 -2 -2 -2 -3 -3 -3 -3 -3 -4 -5 -6 -6 -7 -7 -8
-3 -3 -0 -1 -2 -2 -1 -3 -3 -1 1 1 -0 -1 -2 -2 -2 -2 -1 -1 -1 -1 -1 -2 -2 -2 -2 -1 -0 0 -1 -2 -2 -2 -2 -1 -1 -0 0 -0 -0 -1 -1 -1 -1 -1 -0 -0 -1 -1 -1 -2 -2 -2 -1 -2 -2 -2 -3 -3 -2 -2 -2 -2 -2 -1 -0 -1 -2 -4 -3 -3 -3 -3 -4 -4 -4 -4 -5 -6 -6 -7 -7 -7 -7 -7
-3 -3 -2 -2 -1 -0 -2 -5 -5 -1 3 2 1 -1 -2 -3 -3 -2 -1 -2 -3 -2 -1 -2 -3 -3 -2 0 1 1 -1 -2 -3 -3 -3 -2 -2 -1 -0 -0 -1 -1 -1 -1 -0 -0 -0 -0 -1 -1 -2 -2 -1 -1 -1 -2 -2 -3 -3 -3 -2 -2 -2 -2 -2 -2 -1 -1 -2 -4 -4 -4 -4 -4 -4 -4 -3 -3 -3 -3 -2 -1 -0 1 2 3
-3 -3 -2 -2 -1 0 -1 -6 -6 -2 5 3 1 -1 -0 -1 -2 -2 -2 -5 -4 -2 0 -1 -3 -4 -3 -0 1 1 0 -2 -3 -4 -4 -4 -3 -2 -1 -0 -1 -2 -1 -1 -0 0 0 -0 -1 -1 -2 -1 -1 -1 -1 -2 -2 -3 -3 -2 -2 -1 -1 -2 -2 -3 -3 -3 -3 -4 -3 -3 -2 -2 -2 -1 -1 0 2 2 3 3 4 5 6 6
-2 -2 -1 -1 -1 -1 -1 -6 -6 -1 5 4 1 -2 -2 -2 -1 -1 -4 -7 -5 -1 1 -1 -2 -3 -4 -2 -0 1 1 -1 -3 -4 -4 -3 -2 -0 1 1 -0 -1 -1 -1 -1 -1 -0 -0 -1 -1 -2 -2 -1 -1 -2 -2 -3 -3 -3 -2 -2 -1 -1 -2 -3 -4 -4 -3 -3 -2 -1 -1 -0 -0 -0 0 0 1 1 1 0 -1 -3 -3 -4 -5
-1 -1 -0 -1 -1 -1 -3 -5 -3 0 4 3 0 -4 -7 -5 -1 1 -3 -7 -6 -2 1 0 -1 -2 -3 -3 -1 0 0 -1 -3 -4 -4 -3 -1 0 1 0 -0 -1 -2 -2 -2 -2 -1 -1 -1 -2 -2 -2 -2 -2 -2 -2 -3 -3 -2 -2 -2 -2 -2 -3 -3 -3 -3 -2 -2 -1 -1 -1 -1 -1 -2 -2 -2 -2 -2 -2 -4 -5 -8 -8 -8 -8
-1 -1 0 1 -0 -2 -4 -3 -2 -0 1 -1 -4 -7 -10 -4 1 3 -1 -6 -6 -3 2 1 -1 -3 -3 -2 -1 -1 -0 -2 -2 -3 -3 -4 -3 -1 1 -1 -2 -3 -2 -4 -4 -4 -1 -1 -2 -3 -2 -2 -2 -2 -1 -1 -2 -2 -2 -3 -3 -3 -3 -2 -2 -3 -2 -2 -2 -2 -2 -2 -2 -2 -2 -2 -3 -3 -2 -2 -2 -2 -2 1 2 3
1 1 2 1 -1 -3 -4 -3 -3 -3 -5 -7 -7 -6 -3 3 5 4 -1 -6 -6 -3 3 1 -2 -4 -3 -2 -1 0 0 -1 -2 -3 -4 -5 -3 -0 2 -2 -4 -4 -3 -5 -6 -6 -2 -1 -4 -6 -4 -1 -1 -2 -2 -2 -3 -3 -3 -3 -3 -3 -2 -2 -2 -2 -2 -2 -2 -2 -2 -2 -2 -1 -0 -1 -1 -1 -0 -1 -0 1 4 6 5 3
0 1 1 -2 -3 -4 -5 -5 -5 -6 -9 -7 -4 -1 3 5 4 2 -1 -5 -5 -1 3 0 -3 -5 -5 -4 -1 1 1 -0 -2 -4 -5 -6 -3 0 3 -1 -4 -5 -4 -5 -7 -7 -2 -1 -3 -6 -6 -3 -2 -2 -2 -4 -5 -5 -4 -3 -3 -2 -2 -2 -2 -3 -3 -3 -2 -2 -2 -2 -1 -0 0 -0 -1 -1 -1 -2 -2 -2 -2 -4 -6 -8
-1 -1 -2 -4 -5 -6 -7 -5 -5 -7 -8 -3 0 3 3 1 -0 -1 -0 -3 -2 1 3 -0 -3 -7 -10 -7 -2 2 2 0 -1 -3 -4 -7 -5 -1 4 1 -3 -6 -5 -4 -6 -6 -3 -2 -3 -5 -5 -4 -3 -2 -2 -4 -4 -5 -4 -3 -3 -3 -3 -3 -3 -3 -3 -3 -3 -3 -3 -2 -2 -2 -2 -2 -3 -3 -3 -3 -4 -5 -7 -9 -8 -6
-0 -1 -4 -4 -5 -6 -7 -5 -5 -5 -5 -1 0 1 -0 -2 -1 0 1 0 1 2 0 -1 -2 -5 -12 -11 -6 -0 3 3 0 -2 -3 -6 -6 -3 4 2 -2 -7 -7 -5 -5 -5 -3 -4 -5 -5 -4 -4 -3 -3 -4 -4 -5 -5 -4 -4 -3 -3 -3 -3 -3 -3 -3 -3 -3 -3 -3 -4 -4 -3 -3 -3 -3 -3 -3 -4 -4 -3 -0 3 4 5
-1 -2 -3 -4 -5 -6 -5 -4 -4 -4 -2 -1 -1 -1 -1 -1 1 2 2 2 2 1 -1 -1 -2 -4 -9 -11 -9 -4 5 5 3 0 -2 -7 -8 -4 3 3 -1 -6 -8 -8 -7 -4 -2 -4 -5 -4 -4 -3 -3 -3 -4 -5 -5 -5 -5 -4 -4 -4 -3 -3 -3 -3 -3 -4 -4 -4 -4 -4 -4 -4 -4 -3 -3 -2 -1 1 2 4 5 5 3 1
-3 -2 -2 -4 -6 -6 -4 -5 -5 -4 -3 -4 -2 0 2 0 1 2 1 1 0 0 -0 0 -2 -5 -7 -12 -11 -4 6 6 5 2 -2 -8 -9 -6 2 3 -1 -6 -9 -10 -8 -5 -2 -5 -4 -3 -1 -2 -2 -3 -4 -5 -5 -6 -5 -5 -4 -4 -3 -3 -3 -4 -4 -5 -5 -5 -4 -4 -3 -3 -2 -1 1 1 2 1 0 -1 -2 -4 -6 -7
-3 -2 -3 -5 -4 -3 -5 -8 -8 -7 -5 -3 0 3 2 0 1 1 -1 -0 0 0 0 0 -3 -7 -9 -12 -11 -5 5 8 7 3 -2 -7 -9 -8 1 3 -1 -6 -11 -12 -8 -4 -2 -5 -5 -4 -1 -1 -2 -3 -5 -6 -6 -6 -6 -5 -4 -3 -2 -3 -4 -5 -5 -6 -5 -5 -3 -2 -1 -1 0 0 0 -0 -1 -2 -3 -4 -5 -5 -6 -6
-3 -4 -7 -5 -3 -4 -9 -13 -11 -6 -0 3 5 4 -1 -1 -0 -1 -2 0 1 1 1 -1 -6 -10 -9 -9 -8 -5 4 9 8 4 -1 -6 -10 -10 -1 2 -0 -6 -12 -14 -9 -2 -0 -4 -5 -4 -2 -2 -3 -4 -5 -6 -6 -6 -5 -4 -3 -3 -3 -4 -5 -5 -5 -5 -5 -4 -3 -2 -1 -1 -1 -1 -2 -2 -2 -3 -3 -3 -3 -3 -3 -4
-6 -8 -7 -4 -5 -9 -14 -13 -8 -2 4 7 5 1 -3 -2 -2 -3 -3 -1 -0 -1 -3 -7 -9 -9 -5 -5 -6 -3 5 8 7 5 3 -4 -13 -15 -2 3 0 -6 -13 -15 -9 -3 0 -2 -3 -3 -1 -2 -3 -5 -6 -6 -6 -6 -5 -4 -3 -3 -3 -4 -4 -5 -5 -4 -4 -4 -3 -3 -2 -2 -2 -2 -2 -2 -2 -2 -2 -2 -2 -2 -2 -1
-9 -9 -5 -4 -7 -11 -12 -8 -4 0 4 4 1 -3 -5 -3 -3 -3 -2 -1 -2 -4 -6 -8 -7 -4 -1 -3 -4 -3 2 5 6 7 7 -2 -15 -20 -4 2 0 -6 -15 -13 -8 -3 -1 -2 -2 -2 -1 -2 -4 -5 -6 -6 -6 -5 -5 -4 -4 -4 -3 -4 -4 -4 -4 -4 -3 -2 -2 -2 -2 -2 -2 -2 -2 -2 -2 -2 -2 -2 -2 -1 -0 0
-9 -8 -4 -5 -8 -10 -9 -5 -2 0 2 1 -1 -2 -2 -1 -0 0 1 1 -1 -2 -3 -1 1 2 -1 -1 -1 -2 -3 3 8 9 7 -4 -14 -17 -8 0 -0 -7 -17 -11 -5 -1 -3 -4 -3 -1 -1 -4 -5 -5 -6 -6 -5 -5 -5 -5 -4 -4 -4 -4 -4 -4 -3 -3 -2 -2 -2 -2 -2 -2 -2 -2 -2 -2 -1 -1 -1 -0 -0 1 2 1
-7 -8 -8 -7 -8 -8 -7 -5 -3 -0 1 1 1 0 1 2 3 3 3 2 1 1 2 6 6 3 -4 -1 -1 -4 -7 2 8 9 6 -4 -11 -14 -9 -0 0 -5 -15 -12 -5 1 -2 -6 -6 -4 -1 -5 -6 -5 -5 -5 -5 -5 -5 -5 -4 -4 -4 -4 -4 -3 -3 -3 -2 -2 -2 -2 -3 -2 -2 -2 -1 -1 -1 -0 0 1 1 1 0 -1
-1 -7 -10 -8 -6 -5 -4 -3 -2 -0 1 1 0 0 2 5 6 6 4 1 1 2 6 8 3 -3 -7 -2 -4 -7 -7 2 6 6 5 0 -6 -11 -11 -1 1 -3 -12 -12 -6 -1 -1 -7 -8 -6 -3 -6 -6 -5 -4 -4 -4 -5 -5 -5 -5 -4 -4 -4 -3 -3 -3 -3 -2 -2 -2 -2 -2 -2 -2 -1 -1 -0 0 0 0 -0 0 0 -1 -2
12 1 -7 -7 -5 -4 -2 -2 -1 -0 0 -1 -1 -1 2 6 8 7 2 -3 -2 3 7 4 -2 -7 -7 -3 -6 -8 -6 2 4 3 4 5 1 -6 -12 -4 -0 -2 -8 -10 -7 -3 -0 -6 -8 -7 -5 -6 -6 -4 -4 -4 -4 -5 -5 -5 -4 -4 -3 -3 -3 -3 -3 -2 -2 -2 -2 -2 -2 -2 -1 -1 -0 -0 -0 -0 -0 -0 0 2 0 -2
29 17 3 -3 -6 -6 -3 -2 -1 -1 -0 -0 -0 1 3 5 5 1 -9 -9 -1 5 5 0 -3 -4 -5 -5 -8 -8 -2 2 2 2 6 10 5 -4 -12 -4 -1 -1 -3 -8 -8 -6 -1 -5 -7 -7 -7 -7 -6 -5 -5 -4 -3 -4 -5 -4 -4 -4 -4 -4 -4 -4 -3 -2 -2 -2 -2 -2 -2 -2 -2 -2 -2 -1 -1 -1 -0 1 1 2 0 -4
33 34 26 13 5 -0 -2 -1 -1 -0 -0 -0 1 4 9 8 3 -4 -14 -5 5 9 4 -1 -2 -2 -3 -5 -5 -4 -2 -2 -0 4 11 12 4 -6 -10 -3 -2 -2 1 -3 -7 -9 -7 -5 -4 -5 -8 -8 -6 -5 -5 -3 -3 -4 -5 -5 -5 -4 -4 -4 -5 -4 -4 -2 -2 -2 -2 -3 -3 -3 -3 -3 -2 -2 -2 -1 1 2 2 0 -2 -5
15 27 35 30 24 18 14 12 10 9 8 8 10 14 23 23 18 11 6 13 16 15 8 4 2 2 2 3 3 -0 -7 -8 -3 4 11 9 1 -7 -7 -3 -2 -2 4 4 -2 -10 -17 -11 -5 -1 -5 -6 -6 -4 -3 -3 -4 -5 -7 -7 -7 -6 -5 -4 -5 -5 -4 -2 -1 -1 -2 -4 -4 -4 -3 -3 -2 -2 -2 -0 2 4 2 -0 -2 -4
-1 8 15 19 22 23 22 21 19 17 17 18 20 24 30 32 30 27 25 26 23 20 15 11 9 7 8 10 7 -1 -11 -11 -3 5 7 4 -2 -7 -4 -2 -2 -2 4 8 5 -4 -18 -21 -13 -3 2 -2 -5 -5 -4 -4 -4 -6 -7 -7 -8 -7 -6 -4 -5 -6 -5 -3 -1 -1 -2 -3 -4 -4 -3 -3 -2 -2 -1 0 3 5 4 1 -1 -4
-4 -1 -1 3 6 9 9 9 9 9 10 11 12 14 16 18 17 15 13 12 12 13 13 12 9 8 7 6 2 -4 -12 -8 0 6 5 2 -2 -5 -2 -0 -1 -2 2 8 8 3 -7 -20 -21 -13 0 -1 -4 -6 -5 -3 -3 -4 -5 -6 -7 -8 -7 -4 -4 -6 -7 -5 -3 -2 -1 -2 -3 -3 -3 -3 -3 -3 -2 -0 3 6 6 4 2 -0
-3 -3 -4 -2 -0 0 -0 0 0 1 0 -1 -1 -1 1 2 1 -1 -2 -2 -0 2 4 4 4 4 3 0 -3 -8 -13 -8 -1 6 7 4 -0 -3 -3 0 0 -0 1 5 6 4 -0 -11 -16 -16 -9 -5 -3 -3 -4 -3 -3 -2 -3 -4 -7 -9 -8 -5 -5 -7 -9 -7 -6 -5 -4 -3 -2 -3 -3 -3 -3 -3 -3 -1 2 5 9 10 8 5
-2 -3 -3 -2 -2 -3 -4 -2 -2 -2 -3 -5 -5 -5 -4 -4 -4 -4 -4 -3 -2 -1 -1 -0 1 1 1 -1 -5 -9 -14 -12 -4 6 11 7 2 -2 -2 1 2 2 3 3 3 2 1 -6 -8 -9 -11 -12 -7 -3 -1 -3 -4 -4 -2 -2 -5 -7 -10 -7 -7 -8 -10 -8 -7 -6 -6 -4 -3 -3 -3 -3 -3 -3 -4 -3 0 4 9 12 12 9
-2 -2 -2 -3 -4 -5 -6 -5 -4 -4 -5 -5 -5 -4 -4 -4 -5 -5 -4 -3 -1 -0 -1 -1 -0 1 2 1 -3 -9 -17 -15 -5 7 13 9 4 1 1 -1 -0 2 5 1 1 1 -1 -6 -5 -3 -4 -11 -13 -9 -1 -1 -2 -4 -4 -2 -3 -4 -7 -6 -7 -8 -11 -10 -8 -7 -5 -4 -4 -4 -4 -3 -3 -4 -4 -3 -1 1 4 9 11 12
-2 -3 -3 -4 -5 -6 -8 -8 -7 -6 -5 -5 -4 -3 -2 -4 -4 -5 -4 -2 -0 1 1 0 0 1 1 1 -1 -7 -16 -12 -2 8 12 9 8 7 5 -3 -2 1 6 1 0 0 -0 -5 -5 -3 1 -4 -10 -13 -9 -3 -0 -1 -4 -4 -3 -4 -5 -4 -4 -5 -9 -10 -10 -8 -5 -3 -3 -4 -4 -3 -2 -2 -3 -2 -1 -0 1 4 7 10
-1 -3 -4 -5 -6 -7 -9 -9 -8 -7 -6 -4 -3 -2 -2 -2 -3 -3 -2 -0 2 4 4 3 1 1 0 0 -2 -5 -10 -5 1 7 9 9 10 10 7 -2 -3 1 6 2 0 0 1 -1 -4 -4 -1 -2 -6 -10 -13 -8 -4 -2 -4 -4 -4 -5 -7 -6 -4 -3 -5 -8 -8 -7 -4 -2 -3 -4 -5 -4 -3 -3 -5 -4 -2 0 1 2 4 6
0 -2 -4 -5 -6 -7 -8 -8 -8 -8 -6 -4 -3 -2 -2 -2 -2 -2 -1 1 3 4 5 4 2 1 1 2 0 -2 -3 0 2 4 6 8 10 10 7 0 -2 -0 3 3 3 3 4 3 -0 -3 -5 -6 -6 -6 -6 -5 -6 -7 -9 -6 -4 -4 -6 -5 -4 -4 -4 -6 -6 -6 -4 -2 -2 -3 -6 -5 -5 -5 -7 -8 -5 -2 1 -1 -1 1
-1 -2 -5 -6 -6 -7 -7 -8 -9 -8 -5 -3 -2 -1 -1 -1 -2 -2 -1 0 1 2 3 3 2 2 2 3 2 1 1 1 1 2 4 6 7 7 6 3 -1 -2 0 4 5 6 6 4 2 -1 -4 -7 -9 -9 -5 -2 -2 -5 -8 -9 -9 -7 -4 -1 -2 -3 -4 -4 -6 -7 -7 -4 -2 -2 -4 -5 -4 -4 -7 -9 -8 -5 0 -4 -9 -12
-4 -5 -7 -8 -8 -7 -7 -8 -7 -5 -2 -1 1 1 1 -1 -2 -3 -2 -1 -0 0 0 1 2 2 1 2 1 0 0 -0 0 2 3 3 4 5 6 3 0 -1 1 4 5 6 7 4 1 -2 -1 -1 -5 -9 -8 -4 -2 -2 -1 -5 -11 -15 -11 -4 -3 -4 -4 -3 -3 -5 -7 -6 -4 -2 -2 -2 -1 -2 -3 -7 -9 -7 -1 1 -4 -14
-5 -7 -9 -9 -7 -5 -5 -6 -4 -1 1 2 3 2 0 -1 -2 -3 -3 -2 -1 -1 -1 1 1 0 -0 -1 -1 -1 1 0 1 2 2 2 4 5 6 3 2 2 4 5 5 5 6 5 2 -1 -2 -2 -3 -5 -6 -5 -2 1 4 -1 -8 -14 -12 -7 -4 -4 -5 -5 -3 -1 -2 -4 -5 -4 -2 -1 -1 -1 0 -1 -4 -7 -5 2 4 1
-5 -7 -9 -7 -4 -3 -4 -2 0 2 2 3 2 -0 -2 -2 -1 -1 -2 -3 -4 -4 -2 1 1 -0 -3 -5 -5 -3 0 0 1 2 3 4 5 6 5 3 3 4 6 6 4 2 3 5 4 1 -2 -1 -1 -3 -9 -9 -4 1 3 -1 -5 -9 -12 -14 -6 1 2 -5 -5 -2 0 -2 -5 -6 -4 -4 -4 -3 -0 1 1 -0 -0 0 1 2
-6 -8 -7 -5 -3 -2 -0 2 2 1 1 1 -1 -4 -4 -1 0 1 0 -2 -4 -5 -2 -0 1 0 -2 -9 -11 -10 -6 -3 -0 2 3 2 3 4 3 2 3 5 8 8 4 -0 -2 4 4 1 -3 1 3 2 -5 -8 -6 -3 -1 0 2 0 -10 -23 -17 -6 2 -2 -2 -2 -1 -2 -4 -5 -4 -3 -3 -3 -2 -1 0 2 4 4 1 -1
-5 -5 -3 -1 1 2 5 3 1 -1 -1 -2 -4 -5 -4 -1 1 2 1 -1 -3 -2 -0 1 1 1 -1 -7 -10 -9 -7 -5 -3 -1 -1 -2 -1 -1 -0 0 1 4 7 8 5 1 -1 1 -0 -1 0 5 5 2 -2 -4 -5 -5 -6 -2 3 4 -3 -13 -14 -11 -9 -8 -5 -2 1 0 -2 -5 -6 -4 -3 -2 -2 -3 -4 -3 1 5 6 3
-1 1 3 3 3 4 4 -1 -2 -2 -1 -3 -4 -5 -3 -0 2 3 2 -0 -1 -1 -0 1 4 4 0 -6 -6 -4 -3 -4 -3 -3 -4 -4 -3 -2 -1 -1 -0 1 4 4 4 4 5 1 -3 -4 2 5 5 2 -1 -2 -4 -6 -8 -4 0 1 -4 -4 -4 -4 -7 -10 -9 -6 -1 2 1 -3 -8 -9 -7 -3 -1 -1 -4 -6 -6 0 4 4
8 8 7 6 4 1 -2 -4 -3 -1 -0 -2 -3 -2 -1 1 3 3 1 0 -1 -2 -3 2 6 7 0 -5 -4 -1 -0 -2 -2 -1 -1 -2 -2 -2 -1 -1 -0 1 2 1 1 3 5 2 0 0 3 3 1 -1 -1 1 -0 -5 -12 -7 -3 -1 -5 -4 -3 -1 -2 -6 -9 -9 -4 2 3 1 -5 -8 -9 -7 -3 1 -0 -4 -7 -5 -1 1
13 11 8 6 4 1 -1 -1 1 2 2 1 -0 0 1 2 2 1 -0 -1 -1 -1 -0 4 5 4 -1 -3 -2 0 1 -1 -2 -2 0 -0 -1 -1 -0 -0 0 1 3 2 2 1 1 1 3 6 8 6 -0 -6 -7 0 3 0 -8 -7 -4 -2 -5 -7 -6 -3 -1 -3 -6 -7 -5 -1 -1 -3 -7 -7 -7 -8 -7 -3 -1 -1 -2 -3 -4 -3
10 8 5 4 4 3 4 4 4 4 2 1 -0 0 2 2 1 0 -2 -3 -1 2 5 5 4 1 -2 -3 -1 0 2 0 -2 -2 -0 -0 0 0 1 1 1 2 3 3 3 3 1 1 3 5 7 7 2 -5 -12 -5 0 2 -3 -3 -2 -2 -5 -9 -7 -4 -2 -4 -5 -3 1 2 -0 -4 -9 -11 -13 -13 -9 -6 -4 -2 -0 -1 -2 -4
4 4 3 3 3 3 4 4 3 3 1 -1 -1 0 1 1 1 0 -1 -1 1 3 4 3 1 -0 -2 -3 -3 -1 1 1 -1 -1 -1 -0 0 1 1 1 1 2 3 3 3 3 2 0 -0 1 3 5 2 -3 -10 -7 -3 0 1 0 0 -1 -4 -8 -8 -6 -4 -5 -5 -3 2 4 4 3 2 -4 -12 -17 -14 -10 -7 -6 -2 -0 -1 -2
-0 0 1 2 2 2 2 2 2 2 -0 -0 0 1 1 0 -0 0 1 2 3 3 2 1 1 0 -2 -4 -3 -1 1 -1 -2 -3 -3 -1 1 2 1 1 2 3 3 2 2 2 2 -1 -4 -5 -2 2 3 1 -5 -8 -6 -2 2 -1 -0 -0 -2 -6 -7 -6 -4 -5 -6 -4 -0 0 1 3 7 2 -7 -14 -15 -12 -10 -8 -5 -1 -1 -2
0 1 2 3 3 3 2 2 2 1 -0 0 1 1 1 0 -0 0 2 3 3 2 0 0 1 1 -2 -4 -3 -2 -0 -0 -1 -3 -5 -2 1 2 0 1 2 5 6 3 2 2 4 1 -3 -8 -10 -2 4 5 1 -3 -3 -2 -1 -3 -1 1 1 -3 -5 -5 -3 -4 -5 -4 -2 -2 -2 -0 5 4 -2 -10 -16 -15 -14 -11 -7 -2 -2 -4
Height
1423 1424 1425 1426 1426 1426 1426 1426 1427 1428 1428 1428 1428 1429 1429 1429 1429 1429 1429 1429 1429 1429 1429 1429 1430 1430 1429 1429 1429 1429 1429 1428 1428 1428 1428 1427 1427 1427 1426 1426 1426 1425 1425 1425 1425 1425 1424 1424 1423 1423 1423 1422 1422 1421 1420 1419 1418 1417 1416 1415 1415 1413 1412 1411 1410 1410 1409 1408 1407 1406 1405 1404 1403 1402 1401 1400 1399 1398 1397 1396 1395 1394 1393 1392 1391 1390
1420 1421 1422 1423 1423 1423 1423 1424 1425 1425 1425 1425 1425 1426 1426 1426 1426 1426 1426 1426 1426 1426 1426 1426 1426 1426 1426 1426 1426 1426 1426 1425 1425 1425 1425 1425 1424 1424 1423 1423 1423 1423 1423 1423 1422 1422 1422 1421 1421 1421 1420 1419 1418 1417 1416 1415 1415 1414 1413 1412 1411 1410 1409 1408 1407 1406 1405 1404 1403 1402 1401 1400 1399 1398 1397 1396 1395 1394 1393 1392 1391 1390 1389 1388 1387 1386
1418 1419 1419 1419 1420 1420 1420 1421 1422 1422 1422 1423 1423 1423 1423 1423 1423 1423 1423 1423 1423 1424 1424 1424 1424 1423 1423 1423 1423 1423 1423 1423 1423 1422 1422 1422 1421 1421 1420 1420 1420 1420 1420 1420 1420 1420 1420 1419 1419 1418 1417 1416 1415 1414 1413 1412 1412 1411 1410 1409 1408 1407 1406 1405 1404 1403 1402 1401 1400 1399 1397 1396 1395 1394 1393 1392 1391 1390 1389 1388 1387 1386 1385 1384 1383 1382
1415 1415 1415 1416 1417 1417 1417 1418 1419 1420 1420 1420 1420 1420 1420 1420 1420 1420 1420 1420 1420 1420 1420 1420 1420 1420 1420 1420 1420 1420 1420 1420 1420 1420 1419 1419 1418 1418 1418 1418 1418 1418 1418 1418 1418 1417 1417 1416 1415 1414 1414 1413 1412 1411 1410 1410 1409 1408 1407 1406 1405 1404 1403 1402 1400 1400 1398 1397 1396 1395 1393 1392 1391 1390 1389 1388 1386 1385 1385 1384 1383 1382 1381 1380 1379 1378
1412 1412 1413 1414 1414 1414 1414 1415 1416 1416 1417 1417 1417 1417 1417 1417 1417 1417 1417 1417 1417 1417 1417 1417 1418 1417 1417 1417 1417 1417 1418 1417 1417 1417 1416 1416 1415 1415 1415 1415 1415 1415 1415 1415 1415 1415 1414 1413 1412 1411 1410 1410 1409 1408 1407 1406 1405 1405 1404 1403 1401 1400 1399 1398 1397 1396 1395 1393 1392 1391 1390 1388 1387 1386 1385 1384 1382 1381 1381 1380 1379 1378 1377 1376 1375 1375
1409 1410 1410 1411 1411 1411 1412 1413 1413 1414 1414 1414 1414 1414 1414 1414 1414 1414 1414 1414 1414 1414 1414 1414 1415 1415 1414 1414 1415 1415 1415 1415 1414 1414 1413 1413 1413 1413 1413 1413 1413 1413 1413 1412 1412 1411 1410 1410 1409 1408 1407 1407 1406 1405 1404 1403 1402 1401 1400 1399 1398 1397 1395 1395 1393 1392 1391 1390 1388 1387 1386 1385 1383 1382 1381 1380 1379 1378 1377 1376 1375 1374 1373 1372 1371 1370
1406 1407 1408 1409 1409 1409 1409 1410 1410 1410 1411 1410 1410 1410 1410 1411 1411 1411 1411 1411 1411 1411 1411 1411 1411 1411 1411 1411 1412 1412 1412 1411 1411 1411 1410 1410 1410 1410 1410 1410 1410 1410 1410 1409 1408 1408 1407 1406 1406 1405 1404 1404 1403 1402 1401 1400 1399 1398 1397 1395 1394 1393 1392 1391 1390 1388 1387 1386 1385 1383 1382 1380 1380 1378 1377 1376 1375 1374 1373 1372 1371 1370 1369 1368 1367 1366
1403 1404 1405 1406 1406 1406 1406 1406 1407 1408 1408 1408 1408 1407 1407 1408 1408 1408 1408 1408 1408 1408 1408 1408 1408 1408 1408 1409 1409 1409 1409 1408 1408 1408 1407 1407 1407 1407 1407 1407 1406 1406 1406 1405 1405 1405 1404 1403 1403 1402 1401 1400 1400 1399 1398 1396 1395 1394 1393 1392 1391 1390 1389 1387 1386 1385 1383 1382 1381 1379 1378 1377 1375 1374 1373 1372 1371 1370 1369 1368 1367 1366 1365 1364 1363 1362
1400 1401 1402 1403 1403 1404 1403 1403 1404 1405 1405 1405 1405 1405 1405 1405 1405 1405 1405 1405 1405 1405 1405 1405 1405 1405 1405 1406 1406 1406 1405 1405 1405 1404 1404 1404 1403 1403 1403 1403 1403 1403 1403 1402 1402 1402 1401 1400 1400 1399 1398 1397 1396 1395 1394 1393 1392 1391 1390 1389 1387 1386 1385 1384 1382 1381 1380 1378 1377 1376 1375 1373 1372 1371 1370 1368 1367 1366 1365 1364 1363 1362 1361 1360 1360 1358
1398 1398 1399 1399 1400 1400 1400 1400 1400 1402 1403 1403 1402 1402 1402 1402 1402 1402 1402 1402 1402 1403 1403 1402 1402 1402 1402 1403 1403 1403 1403 1402 1402 1401 1401 1401 1400 1400 1400 1400 1400 1400 1400 1399 1399 1399 1398 1397 1397 1396 1395 1394 1393 1392 1391 1390 1389 1387 1386 1385 1384 1383 1381 1380 1379 1377 1376 1375 1373 1372 1371 1370 1369 1367 1366 1365 1364 1363 1362 1361 1360 1358 1357 1356 1355 1354
1395 1395 1396 1396 1396 1397 1397 1397 1398 1399 1400 1400 1400 1399 1399 1399 1399 1399 1399 1399 1399 1400 1400 1400 1400 1399 1400 1400 1400 1400 1400 1399 1399 1399 1399 1398 1398 1398 1398 1398 1397 1397 1397 1396 1396 1395 1395 1394 1394 1393 1392 1391 1390 1389 1387 1386 1385 1384 1383 1382 1381 1379 1378 1376 1375 1374 1373 1371 1370 1369 1368 1367 1365 1364 1363 1361 1360 1359 1358 1357 1355 1354 1353 1352 1351 1350
1392 1392 1393 1393 1393 1394 1394 1394 1395 1396 1397 1397 1396 1396 1395 1395 1396 1397 1396 1396 1396 1397 1397 1397 1397 1397 1397 1397 1397 1397 1397 1396 1396 1395 1395 1395 1395 1395 1395 1395 1394 1394 1393 1393 1393 1392 1392 1391 1390 1390 1389 1387 1386 1385 1385 1383 1382 1381 1380 1379 1377 1376 1375 1373 1372 1371 1370 1369 1367 1366 1365 1363 1362 1360 1359 1358 1356 1355 1354 1353 1351 1350 1349 1348 1347 1346
1389 1390 1390 1390 1390 1390 1390 1391 1392 1393 1393 1393 1393 1392 1392 1393 1394 1394 1394 1394 1394 1394 1395 1395 1394 1394 1394 1395 1395 1395 1394 1394 1393 1393 1393 1392 1392 1392 1391 1391 1390 1390 1390 1389 1389 1388 1388 1388 1387 1386 1385 1384 1383 1382 1382 1380 1379 1378 1377 1375 1374 1373 1371 1370 1369 1368 1367 1365 1364 1363 1361 1360 1358 1357 1355 1354 1353 1351 1350 1349 1348 1347 1345 1344 1343 1342
1385 1386 1387 1387 1387 1387 1387 1389 1389 1390 1389 1389 1389 1389 1390 1391 1392 1392 1392 1391 1391 1392 1392 1392 1391 1391 1391 1392 1392 1392 1392 1391 1390 1390 1390 1389 1389 1389 1389 1388 1387 1387 1387 1386 1385 1385 1385 1385 1384 1383 1382 1381 1380 1379 1378 1377 1376 1375 1374 1372 1371 1370 1369 1367 1366 1365 1364 1362 1361 1360 1358 1356 1355 1353 1352 1350 1349 1348 1346 1345 1344 1343 1342 1340 1339 1338
1382 1383 1384 1383 1383 1383 1384 1385 1386 1386 1386 1386 1387 1387 1388 1389 1389 1389 1389 1389 1389 1389 1390 1389 1389 1388 1388 1388 1389 1389 1389 1389 1388 1387 1387 1386 1386 1386 1386 1385 1385 1384 1384 1383 1383 1382 1382 1382 1381 1380 1379 1378 1377 1376 1375 1374 1373 1372 1371 1370 1368 1367 1366 1365 1364 1362 1361 1359 1358 1356 1355 1353 1351 1350 1348 1347 1345 1344 1343 1341 1340 1339 1337 1336 1335 1333
1379 1380 1380 1379 1379 1380 1381 1382 1383 1383 1383 1384 1385 1385 1386 1386 1386 1386 1387 1386 1386 1387 1388 1387 1386 1385 1385 1385 1386 1387 1387 1386 1385 1385 1384 1383 1383 1384 1384 1383 1382 1381 1381 1381 1380 1379 1379 1379 1378 1377 1375 1375 1374 1373 1372 1371 1370 1369 1368 1367 1366 1365 1363 1362 1360 1359 1358 1356 1355 1353 1351 1350 1348 1346 1345 1343 1341 1340 1339 1337 1336 1335 1334 1332 1331 1330
1376 1376 1376 1376 1376 1376 1377 1379 1380 1380 1381 1382 1383 1383 1383 1383 1384 1384 1384 1384 1385 1385 1385 1385 1385 1384 1382 1382 1383 1384 1385 1384 1383 1383 1382 1381 1380 1381 1382 1381 1380 1379 1378 1378 1377 1377 1376 1375 1375 1374 1373 1372 1371 1370 1370 1369 1368 1367 1366 1365 1363 1362 1360 1359 1358 1356 1355 1353 1351 1350 1348 1346 1344 1343 1341 1339 1338 1336 1335 1334 1332 1331 1330 1329 1327 1326
1372 1372 1372 1372 1372 1373 1375 1376 1377 1378 1379 1379 1380 1380 1380 1381 1381 1382 1382 1382 1382 1383 1382 1383 1382 1382 1381 1380 1380 1381 1383 1382 1382 1380 1380 1378 1378 1378 1379 1379 1377 1376 1375 1375 1374 1374 1373 1373 1372 1371 1370 1369 1368 1368 1367 1366 1365 1364 1363 1362 1360 1359 1358 1356 1355 1353 1352 1350 1348 1346 1345 1343 1341 1339 1338 1336 1335 1333 1331 1330 1329 1327 1326 1324 1323 1321
1368 1368 1368 1369 1369 1370 1372 1374 1375 1375 1376 1376 1377 1377 1378 1378 1379 1379 1380 1380 1380 1380 1380 1380 1380 1379 1379 1378 1378 1379 1380 1380 1380 1378 1377 1375 1375 1375 1376 1376 1375 1373 1372 1371 1371 1371 1370 1370 1369 1368 1367 1366 1365 1365 1364 1363 1363 1361 1360 1359 1358 1356 1355 1354 1352 1350 1349 1347 1345 1343 1341 1340 1338 1336 1334 1333 1331 1330 1328 1326 1325 1323 1321 1320 1318 1317
1364 1364 1365 1365 1366 1368 1369 1370 1371 1373 1374 1374 1375 1375 1375 1375 1376 1377 1377 1377 1377 1377 1377 1378 1377 1376 1376 1375 1375 1376 1378 1378 1377 1376 1374 1373 1372 1372 1373 1373 1372 1370 1369 1368 1368 1368 1368 1367 1366 1365 1364 1363 1363 1362 1361 1361 1360 1359 1358 1356 1355 1354 1352 1351 1349 1348 1346 1344 1342 1340 1338 1337 1335 1333 1331 1330 1328 1326 1324 1322 1320 1319 1317 1315 1314 1313
1361 1361 1361 1362 1364 1365 1366 1367 1368 1370 1371 1372 1372 1372 1372 1373 1374 1374 1374 1374 1375 1375 1375 1375 1374 1373 1373 1373 1373 1374 1375 1376 1375 1373 1372 1370 1369 1368 1369 1370 1369 1368 1366 1365 1365 1365 1365 1364 1363 1362 1361 1360 1360 1359 1358 1358 1357 1356 1355 1354 1352 1351 1350 1348 1346 1345 1343 1341 1339 1337 1335 1334 1332 1330 1328 1326 1324 1322 1320 1318 1317 1315 1313 1312 1310 1309
1357 1357 1358 1360 1361 1362 1363 1364 1366 1367 1369 1370 1370 1370 1370 1370 1371 1371 1371 1372 1372 1372 1372 1372 1371 1371 1371 1371 1371 1371 1373 1373 1372 1371 1370 1368 1365 1365 1366 1367 1366 1365 1363 1362 1362 1362 1362 1361 1360 1359 1358 1357 1357 1356 1355 1355 1354 1353 1352 1351 1350 1348 1346 1345 1343 1341 1340 1338 1336 1334 1332 1330 1328 1326 1324 1322 1320 1318 1316 1315 1313 1311 1310 1308 1306 1305
1353 1354 1356 1357 1358 1359 1360 1362 1364 1365 1366 1366 1366 1366 1367 1368 1368 1368 1369 1369 1370 1370 1369 1369 1369 1369 1369 1368 1368 1368 1369 1370 1370 1369 1368 1365 1362 1361 1364 1365 1364 1362 1360 1360 1360 1360 1359 1358 1357 1355 1355 1354 1354 1353 1353 1352 1351 1350 1349 1348 1347 1345 1344 1342 1340 1339 1337 1335 1333 1331 1329 1327 1325 1323 1320 1319 1316 1315 1313 1311 1309 1307 1306 1304 1302 1301
1349 1350 1353 1354 1355 1356 1357 1359 1361 1362 1363 1363 1363 1364 1365 1365 1366 1366 1367 1367 1367 1367 1367 1367 1366 1365 1365 1365 1365 1365 1365 1367 1367 1367 1365 1363 1360 1359 1360 1362 1361 1359 1357 1357 1357 1357 1356 1355 1353 1352 1352 1351 1350 1350 1350 1349 1348 1347 1346 1345 1344 1342 1341 1339 1337 1335 1334 1332 1330 1328 1326 1324 1321 1319 1317 1315 1313 1311 1309 1307 1305 1304 1302 1300 1298 1297
1345 1347 1349 1350 1352 1353 1355 1356 1358 1359 1360 1360 1361 1361 1362 1363 1364 1364 1365 1365 1365 1365 1365 1365 1364 1363 1362 1363 1363 1362 1362 1364 1364 1364 1362 1360 1358 1357 1357 1359 1358 1357 1355 1354 1355 1355 1353 1351 1350 1349 1349 1348 1347 1347 1347 1346 1345 1344 1343 1342 1341 1339 1338 1336 1335 1333 1331 1329 1326 1324 1322 1320 1318 1316 1314 1312 1310 1308 1305 1304 1302 1300 1298 1296 1294 1292
1343 1343 1345 1348 1350 1351 1352 1354 1355 1356 1357 1358 1358 1359 1360 1360 1361 1362 1362 1362 1362 1362 1362 1362 1361 1360 1360 1360 1360 1360 1360 1361 1361 1360 1360 1358 1356 1354 1354 1355 1356 1355 1353 1352 1352 1351 1350 1348 1347 1346 1345 1345 1344 1344 1344 1343 1342 1341 1340 1339 1338 1336 1335 1333 1331 1330 1327 1325 1323 1321 1319 1317 1315 1312 1310 1308 1306 1304 1302 1300 1298 1296 1294 1292 1290 1288
1342 1342 1343 1345 1347 1349 1350 1351 1352 1353 1354 1355 1355 1356 1357 1358 1358 1358 1358 1358 1358 1359 1360 1359 1358 1357 1357 1358 1357 1356 1357 1358 1358 1357 1357 1356 1354 1352 1351 1352 1353 1353 1351 1350 1349 1348 1347 1345 1344 1343 1342 1341 1341 1340 1340 1339 1339 1338 1337 1336 1335 1333 1332 1330 1328 1326 1324 1322 1320 1318 1315 1313 1311 1309 1307 1305 1303 1300 1298 1296 1294 1292 1290 1288 1286 1283
1343 1341 1341 1342 1344 1345 1347 1348 1349 1350 1351 1352 1353 1354 1355 1355 1355 1354 1353 1354 1355 1356 1355 1355 1354 1354 1354 1354 1353 1354 1355 1355 1355 1355 1355 1354 1352 1349 1349 1350 1351 1350 1349 1347 1346 1345 1345 1343 1341 1340 1339 1338 1338 1337 1337 1336 1335 1335 1334 1333 1331 1330 1329 1327 1325 1323 1321 1319 1316 1315 1312 1310 1308 1306 1304 1301 1299 1297 1295 1293 1290 1289 1287 1285 1282 1279
1342 1342 1341 1341 1341 1343 1344 1345 1346 1347 1348 1350 1351 1352 1352 1351 1350 1349 1348 1350 1352 1352 1351 1350 1350 1350 1350 1350 1350 1351 1351 1351 1352 1352 1352 1351 1349 1347 1347 1348 1349 1348 1347 1345 1343 1341 1340 1339 1338 1337 1336 1336 1335 1335 1334 1333 1332 1331 1330 1329 1328 1327 1325 1324 1322 1320 1318 1316 1314 1311 1309 1307 1305 1302 1300 1298 1295 1293 1291 1289 1287 1285 1283 1280 1278 1275
1337 1339 1340 1340 1341 1342 1343 1344 1344 1345 1346 1347 1348 1350 1350 1350 1348 1347 1347 1349 1349 1349 1348 1347 1348 1348 1348 1348 1348 1348 1347 1348 1349 1350 1350 1349 1347 1345 1346 1346 1346 1346 1346 1345 1342 1339 1336 1335 1335 1335 1335 1334 1333 1332 1331 1330 1330 1328 1327 1326 1325 1323 1322 1320 1319 1317 1315 1313 1310 1308 1306 1304 1301 1299 1297 1294 1292 1290 1288 1286 1285 1282 1280 1277 1275 1272
1333 1334 1335 1337 1338 1340 1341 1342 1342 1343 1345 1345 1347 1348 1349 1348 1348 1347 1348 1348 1348 1347 1347 1346 1346 1346 1347 1347 1347 1345 1345 1345 1347 1348 1348 1347 1345 1344 1344 1345 1344 1344 1344 1344 1342 1338 1334 1331 1331 1332 1332 1331 1330 1329 1328 1328 1326 1325 1324 1323 1321 1320 1319 1317 1316 1314 1312 1310 1307 1305 1302 1300 1298 1295 1293 1291 1289 1287 1285 1283 1281 1280 1277 1274 1272 1269
1330 1331 1332 1332 1334 1335 1336 1337 1338 1340 1341 1342 1343 1344 1345 1345 1345 1345 1346 1346 1346 1346 1346 1345 1345 1345 1345 1345 1344 1343 1343 1344 1345 1346 1345 1345 1343 1342 1343 1343 1342 1341 1341 1341 1340 1338 1334 1330 1328 1328 1329 1329 1327 1326 1325 1325 1324 1323 1321 1320 1318 1317 1315 1315 1313 1311 1309 1306 1304 1301 1299 1297 1295 1292 1290 1288 1285 1283 1281 1280 1278 1277 1275 1272 1269 1267
1327 1328 1329 1330 1331 1332 1333 1334 1335 1336 1337 1338 1339 1340 1340 1341 1342 1342 1343 1343 1343 1344 1343 1343 1343 1342 1342 1342 1341 1341 1340 1342 1343 1344 1344 1343 1341 1340 1340 1340 1340 1339 1338 1338 1337 1335 1333 1330 1327 1325 1325 1325 1324 1324 1322 1322 1321 1320 1319 1318 1316 1314 1313 1311 1310 1308 1305 1303 1300 1298 1295 1293 1291 1289 1286 1284 1282 1280 1278 1276 1275 1274 1272 1270 1267 1265
1324 1325 1326 1328 1328 1329 1330 1331 1333 1334 1335 1335 1336 1336 1337 1338 1339 1340 1340 1340 1340 1340 1340 1340 1340 1340 1339 1339 1338 1338 1338 1339 1340 1342 1342 1341 1339 1338 1338 1338 1337 1336 1335 1335 1334 1332 1330 1328 1326 1325 1323 1321 1320 1320 1320 1319 1318 1317 1316 1315 1314 1311 1310 1309 1307 1305 1303 1300 1297 1295 1292 1290 1287 1285 1283 1281 1279 1276 1275 1273 1271 1270 1269 1268 1265 1263
1321 1323 1324 1325 1326 1327 1328 1329 1330 1331 1332 1332 1332 1333 1334 1335 1335 1336 1337 1337 1337 1337 1337 1336 1336 1337 1337 1336 1336 1335 1335 1336 1338 1340 1340 1339 1337 1336 1335 1335 1334 1334 1333 1332 1331 1330 1328 1326 1325 1324 1322 1319 1317 1316 1317 1316 1316 1315 1314 1313 1311 1310 1308 1306 1304 1302 1300 1297 1295 1292 1289 1287 1285 1282 1280 1277 1275 1273 1271 1270 1268 1266 1265 1264 1263 1261
1319 1320 1321 1322 1323 1324 1325 1326 1327 1328 1328 1328 1329 1330 1330 1332 1333 1333 1334 1334 1334 1334 1334 1334 1334 1334 1334 1334 1333 1333 1332 1334 1335 1337 1337 1336 1335 1334 1333 1331 1331 1331 1331 1329 1328 1327 1325 1324 1322 1321 1320 1318 1315 1313 1313 1313 1313 1313 1311 1310 1309 1307 1305 1304 1302 1300 1298 1295 1292 1290 1287 1285 1282 1279 1277 1275 1272 1270 1268 1266 1264 1262 1261 1260 1258 1257
1317 1317 1318 1319 1320 1321 1322 1323 1324 1324 1325 1325 1326 1327 1328 1329 1330 1330 1331 1331 1331 1331 1331 1331 1331 1331 1331 1331 1330 1330 1330 1331 1333 1334 1334 1333 1333 1332 1330 1329 1328 1329 1329 1327 1325 1325 1323 1322 1320 1318 1317 1316 1314 1312 1310 1310 1310 1309 1308 1307 1306 1305 1303 1301 1300 1298 1296 1293 1290 1288 1285 1283 1280 1277 1274 1272 1269 1267 1264 1262 1260 1258 1256 1255 1254 1252
1314 1315 1315 1316 1317 1318 1319 1320 1320 1321 1321 1322 1323 1325 1326 1326 1327 1328 1328 1328 1328 1328 1329 1329 1329 1329 1329 1328 1328 1328 1329 1329 1330 1330 1330 1330 1330 1329 1328 1326 1325 1325 1325 1325 1324 1322 1321 1320 1318 1316 1314 1313 1311 1310 1309 1308 1307 1306 1304 1304 1303 1302 1300 1299 1297 1296 1294 1291 1289 1286 1283 1281 1278 1275 1272 1269 1266 1264 1261 1258 1256 1254 1253 1251 1249 1247
1312 1312 1313 1314 1315 1315 1316 1316 1317 1317 1319 1320 1321 1323 1324 1324 1325 1325 1325 1325 1325 1326 1326 1326 1326 1326 1326 1326 1326 1326 1326 1326 1327 1327 1327 1327 1327 1326 1325 1324 1323 1322 1322 1322 1321 1320 1319 1317 1315 1314 1312 1310 1308 1307 1306 1306 1305 1304 1302 1300 1299 1298 1298 1297 1295 1294 1292 1289 1287 1284 1281 1278 1276 1273 1270 1267 1264 1262 1259 1255 1253 1251 1249 1247 1244 1241
1309 1310 1310 1311 1312 1313 1313 1313 1314 1315 1316 1318 1320 1321 1321 1322 1322 1322 1323 1323 1323 1323 1323 1323 1323 1323 1323 1323 1323 1324 1324 1324 1324 1324 1324 1324 1323 1323 1322 1321 1320 1319 1319 1319 1318 1317 1316 1315 1313 1311 1310 1308 1306 1305 1303 1303 1302 1302 1301 1299 1297 1295 1294 1294 1293 1291 1289 1287 1285 1282 1279 1276 1273 1271 1268 1265 1263 1260 1257 1254 1251 1248 1246 1245 1243 1239
1307 1307 1308 1309 1309 1310 1310 1311 1312 1314 1315 1316 1318 1318 1319 1319 1320 1320 1320 1320 1320 1320 1321 1321 1321 1320 1320 1320 1320 1320 1320 1320 1320 1320 1320 1320 1320 1320 1319 1318 1317 1317 1316 1316 1315 1314 1313 1312 1310 1309 1307 1306 1305 1303 1301 1300 1300 1300 1300 1298 1295 1293 1291 1291 1290 1289 1287 1285 1283 1280 1278 1275 1271 1269 1266 1263 1260 1258 1255 1253 1250 1247 1245 1243 1242 1240
1305 1305 1305 1306 1307 1307 1308 1309 1310 1312 1313 1314 1315 1316 1316 1316 1317 1317 1317 1317 1317 1318 1318 1318 1318 1317 1317 1316 1316 1317 1317 1317 1317 1317 1317 1317 1317 1317 1316 1315 1315 1314 1314 1313 1312 1310 1310 1309 1308 1306 1305 1304 1303 1301 1298 1297 1297 1297 1297 1295 1293 1291 1289 1287 1287 1286 1285 1283 1280 1278 1276 1273 1270 1266 1263 1260 1258 1255 1253 1251 1248 1246 1244 1242 1240 1238
1302 1302 1303 1304 1305 1305 1306 1308 1309 1310 1311 1312 1312 1313 1313 1314 1314 1315 1315 1315 1315 1315 1315 1315 1315 1315 1314 1313 1312 1312 1312 1312 1313 1313 1313 1314 1314 1314 1313 1312 1311 1311 1311 1310 1309 1307 1306 1306 1305 1304 1302 1302 1301 1299 1296 1294 1293 1294 1294 1293 1292 1290 1287 1284 1283 1283 1282 1280 1278 1276 1274 1271 1268 1265 1261 1258 1255 1253 1250 1248 1246 1244 1242 1240 1237 1235
1300 1300 1301 1302 1303 1304 1305 1306 1306 1307 1308 1309 1310 1310 1311 1311 1312 1312 1312 1312 1312 1312 1312 1313 1313 1312 1311 1310 1309 1308 1308 1308 1309 1309 1309 1309 1309 1309 1309 1308 1308 1308 1307 1307 1305 1304 1303 1303 1301 1300 1300 1300 1299 1296 1294 1292 1291 1290 1290 1290 1290 1289 1286 1283 1281 1280 1279 1278 1276 1274 1272 1269 1266 1263 1259 1256 1253 1251 1248 1246 1243 1240 1238 1236 1235 1232
1298 1299 1299 1300 1301 1302 1303 1303 1304 1305 1306 1307 1307 1308 1308 1309 1309 1310 1310 1310 1310 1310 1310 1310 1310 1310 1308 1306 1306 1306 1305 1305 1305 1305 1305 1305 1305 1305 1305 1305 1304 1304 1304 1303 1302 1301 1301 1300 1298 1297 1297 1297 1296 1294 1292 1290 1289 1287 1287 1287 1286 1286 1284 1282 1280 1279 1277 1275 1273 1271 1270 1267 1265 1261 1258 1254 1251 1248 1246 1243 1240 1237 1235 1233 1231 1229
1296 1296 1297 1298 1298 1299 1300 1300 1302 1303 1304 1305 1305 1305 1306 1307 1307 1307 1307 1307 1307 1307 1308 1308 1308 1307 1305 1304 1304 1304 1303 1303 1302 1302 1302 1302 1302 1302 1302 1301 1301 1301 1300 1300 1299 1298 1298 1297 1296 1295 1295 1294 1292 1290 1289 1288 1287 1285 1284 1284 1284 1283 1281 1280 1278 1277 1275 1274 1271 1269 1267 1265 1263 1260 1256 1252 1248 1245 1242 1240 1238 1235 1232 1230 1227 1225
1294 1294 1295 1295 1296 1297 1298 1299 1300 1301 1302 1302 1303 1304 1304 1304 1305 1305 1305 1305 1305 1305 1305 1305 1305 1304 1303 1302 1302 1302 1301 1300 1300 1300 1300 1300 1300 1299 1299 1299 1299 1298 1298 1297 1296 1295 1295 1294 1293 1293 1293 1291 1289 1286 1285 1285 1284 1283 1281 1281 1280 1280 1278 1276 1275 1275 1274 1272 1270 1267 1265 1264 1261 1258 1255 1250 1246 1242 1239 1237 1235 1233 1230 1228 1225 1223
1292 1293 1293 1294 1295 1295 1296 1297 1298 1299 1300 1300 1301 1301 1302 1302 1302 1302 1302 1303 1303 1303 1303 1302 1302 1301 1300 1300 1300 1300 1299 1298 1297 1297 1297 1297 1297 1297 1297 1296 1296 1295 1295 1294 1294 1293 1292 1291 1290 1290 1290 1288 1286 1284 1281 1281 1281 1280 1279 1279 1278 1277 1275 1274 1273 1272 1271 1270 1268 1266 1264 1263 1260 1257 1253 1248 1243 1239 1235 1233 1231 1230 1228 1226 1224 1221
1291 1292 1292 1293 1294 1294 1295 1295 1296 1297 1297 1298 1299 1299 1299 1300 1300 1300 1300 1300 1300 1300 1300 1300 1300 1299 1298 1298 1297 1297 1297 1296 1295 1295 1294 1294 1294 1294 1294 1294 1294 1293 1292 1292 1291 1290 1289 1288 1287 1286 1285 1285 1283 1281 1278 1277 1277 1277 1276 1276 1275 1274 1273 1271 1270 1270 1269 1267 1266 1264 1263 1261 1259 1256 1253 1248 1243 1237 1233 1230 1228 1227 1225 1224 1222 1219
1289 1290 1290 1291 1292 1292 1293 1293 1294 1295 1295 1295 1296 1297 1297 1297 1298 1298 1298 1298 1298 1298 1298 1297 1297 1297 1296 1295 1295 1294 1294 1293 1293 1292 1291 1291 1292 1292 1291 1291 1291 1291 1290 1289 1288 1287 1286 1285 1283 1281 1281 1281 1280 1279 1277 1275 1274 1274 1274 1273 1272 1272 1271 1269 1268 1267 1267 1265 1264 1262 1260 1259 1256 1255 1252 1248 1243 1237 1232 1228 1226 1224 1223 1222 1220 1217
1287 1287 1288 1289 1289 1290 1290 1291 1291 1292 1293 1293 1294 1295 1295 1295 1295 1295 1296 1296 1296 1295 1295 1295 1295 1294 1293 1292 1292 1291 1291 1290 1290 1289 1289 1289 1289 1290 1289 1289 1289 1289 1288 1287 1286 1285 1284 1282 1280 1278 1277 1277 1277 1277 1275 1274 1272 1271 1270 1270 1269 1270 1269 1267 1266 1265 1265 1264 1262 1260 1258 1256 1254 1252 1250 1247 1243 1237 1231 1227 1224 1222 1220 1220 1218 1215